Location: *
(10.4782°N, 67.2163°W)
Time: 23:09:38
(UTC+00:00)

Sylda 5 - Pass Details

Date: 23 May 2024
Orbit: 606 x 35443 km, 6.4° (Epoch: 25 June)

Event Time Altitude Azimuth Distance (km) Brightness Sun altitude
Rises 00:04:33 0° 252° (WSW) 7,183 8.2 -18.7°
Reaches altitude 10° 00:12:10 10° 238° (WSW) 3,853 6.5 -20.4°
Maximum altitude 00:17:41 20° 190° (S) 1,838 4.3 -21.6°
Enters shadow 00:18:13 20° 180° (S) 1,764 4.1 -21.7°
